Location: Jackson Park
(37.2862°N, 79.9123°W)
Time: 13:29:42
(UTC+00:00)

Vanguard 3 - Pass Details

Date: 11 May 2026
Orbit: 507 x 3204 km, 33.3° (Epoch: 6 June)

Event Time Altitude Azimuth Distance (km) Brightness Sun altitude
Rises 21:54:44 0° 261° (W) 7,144 13.2 26.8°
Reaches altitude 10° 21:59:36 10° 261° (W) 6,112 13.3 25.8°
Maximum altitude 22:18:42 77° 180° (S) 2,663 10.1 22.0°
Drops below altitude 10° 22:31:08 10° 97° (E) 4,201 10.3 19.6°
Sets 22:33:50 0° 95° (E) 4,896 10.5 19.1°
